Location: Strawberry
(45.6646°N, 111.9596°W)
Time: 21:26:17
(UTC+00:00)

Explorer 11/Cluster Stage 4 - Pass Details

Date: 05 October 2022
Orbit: 466 x 1248 km, 28.8° (Epoch: 28 November)

Event Time Altitude Azimuth Distance (km) Brightness Sun altitude
Rises 18:33:44 0° 230° (SW) 4,174 10.6 38.5°
Reaches altitude 10° 18:37:34 10° 215° (SW) 3,204 10.4 38.7°
Maximum altitude 18:43:03 20° 172° (S) 2,467 10.9 38.9°
Drops below altitude 10° 18:48:15 10° 129° (SE) 3,019 10.3 39.0°
Sets 18:51:43 0° 113° (ESE) 3,863 10.5 39.1°
